Regional Weather Roundup
Issued by NWS

Home | Current Version | Previous Version | Text Only | Print | Product List | Glossary Off
Versions: 1 2 3 4 5 6 7 8 9 10 11 12 13 14 15 16 17 18 19 20 21 22 23 24 25 26 27 28 29 30 31 32 33 34 35 36 37 38 39 40 41 42 43 44 45 46 47 48 49 50

251
ASUS45 KABQ 032301
RWRNM
NEW MEXICO REGIONAL WEATHER ROUNDUP
NATIONAL WEATHER SERVICE ALBUQUERQUE NM
500 PM MDT TUE MAY 03 2016

NOTE: "FAIR" MEANS FEW OR NO CLOUDS BELOW 12,000 FEET AGL WITH NO
       SIGNIFICANT WEATHER OR OBSTRUCTIONS TO VISION.

      THIS PRODUCT IS RELEASED AS TWO VERSIONS.  ONE VERSION NEAR
      THE TOP OF THE HOUR CONTAINING PRELIMINARY DATA FROM ALBUQUERQUE
      AND OTHER STATIONS.  A FINAL VERSION WITH ADDITIONAL DATA IS
      ISSUED ABOUT 10 MINUTES AFTER THE HOUR.

NMZ501-503-504-510>518-040000-
NORTHWEST PLATEAU/NORTHCENTRAL MOUNTAINS

CITY           SKY/WX    TMP DP  RH WIND       PRES   REMARKS
FARMINGTON     FAIR      69  27  20 VRB6      30.16F
SANTA FE       PTSUNNY   69  17  13 N5        30.19S
TAOS           FAIR      63  19  19 N12       30.24S

$$
NMZ402-403-502-505>509-040000-
WESTCENTRAL MOUNTAINS/SOUTHWEST MOUNTAINS

CITY           SKY/WX    TMP DP  RH WIND       PRES   REMARKS
GALLUP         FAIR      66  20  17 VRB3      30.22F
GRANTS         FAIR      67  25  21 NW9       30.23S
SILVER CITY      N/A     73  25  16 E7        30.12S

$$
NMZ407-409-411-412-040000-
SOUTHERN DESERTS

CITY           SKY/WX    TMP DP  RH WIND       PRES   REMARKS
LORDSBURG      FAIR      79  25  13 N9        30.03F
DEMING         FAIR      80  27  14 CALM      30.05F
ALAMOGORDO     FAIR      79  23  12 N12       30.07F
T OR C         FAIR      73  29  19 E5        30.10S

$$
NMZ519>523-040000-
CENTRAL VALLEYS/CENTRAL HIGHLANDS

CITY           SKY/WX    TMP DP  RH WIND       PRES   REMARKS
ALBUQUERQUE    FAIR      73  22  14 VRB3      30.15S
DOUBLE EAGLE   MOSUNNY   70  27  19 S3        30.18F
CLINES CORNERS PTSUNNY   58  30  34 E13       30.24S
BELEN          FAIR      72  23  15 CALM      30.15S
SOCORRO        NOT AVBL

$$
NMZ524>526-539-540-040000-
SOUTHCENTRAL MOUNTAINS

CITY           SKY/WX    TMP DP  RH WIND       PRES   REMARKS
RUIDOSO        NOT AVBL

$$
NMZ527>531-040000-
NORTHEAST HIGHLANDS/NORTHEAST PLAINS

CITY           SKY/WX    TMP DP  RH WIND       PRES   REMARKS
LAS VEGAS      FAIR      56  34  43 VRB3      30.26S
RATON          FAIR      63  22  20 N18G28    30.22R
CLAYTON        FAIR      67  28  23 N25G32    30.15R

$$
NMZ532>537-040000-
EASTCENTRAL PLAINS

CITY           SKY/WX    TMP DP  RH WIND       PRES   REMARKS
TUCUMCARI      FAIR      74  24  15 N17G28    30.11S
CANNON AFB     NOT AVBL
CLOVIS AIRPORT FAIR      72  34  25 N15       30.14S

$$
NMZ028-029-538-040000-
SOUTHEAST PLAINS

CITY           SKY/WX    TMP DP  RH WIND       PRES   REMARKS
ROSWELL        FAIR      75  35  23 N10       30.08F
ARTESIA        FAIR      75  37  25 N20       30.07R
CARLSBAD       FAIR      81  31  16 E10       30.02S
HOBBS          PTSUNNY   75  28  17 W13G20    30.06R


$$




USA.gov is the U.S. government's official web portal to all federal, state and local government web resources and services.